GOES 15

Last updated on Mon Oct 14 2024 00:02:27 GMT+0000 (Coordinated Universal Time)

1 36411U 10008A 24287.49021865 .00000037 00000+0 00000+0 0 9990 2 36411 0.2964 274.2149 0006505 313.3849 32.7261 1.00272251 53496
UTC large
Height (km)
Speed (km/s)
/
Latitude / Longitude
Inclination (degrees)
Orbital Period (minutes)
Azimuth
Elevation
Range (km)
Doppler Factor

Next 0 passes for location: London (51.5072 / 0.1276)

Sorry there are no passes over London.